Temp_Advection
nan nan nan nan nan nan nan nan nan nan nan nan nan nan nan nan nan nan nan nan nan nan nan nan nan nan nan nan nan nan nan nan nan nan nan nan nan nan nan nan nan nan nan nan nan nan nan nan nan nan nan nan nan nan nan nan nan nan nan nan nan nan nan nan nan nan nan nan nan
nan 2 2 2 2 2 2 2 2 3 3 3 3 2 2 1 1 1 1 0 -0 1 2 1 1 2 1 1 1 1 1 2 3 3 3 2 1 1 0 0 1 1 2 2 2 2 2 2 2 1 1 0 0 1 0 1 1 1 1 1 1 2 1 1 1 1 2 2 nan
nan 2 2 2 2 2 2 2 3 4 4 4 3 3 2 2 2 2 1 1 1 1 1 -0 0 1 2 2 1 1 1 1 2 3 3 2 1 0 0 0 1 1 2 2 2 2 2 2 2 1 0 0 1 1 1 1 1 1 1 1 1 1 1 1 1 1 1 1 nan
nan 2 2 2 2 2 3 3 3 4 4 4 3 3 2 1 2 2 2 2 2 -0 -1 -1 -0 0 1 1 1 1 1 2 3 3 3 2 1 0 -0 0 1 1 2 2 2 2 2 2 1 1 0 1 1 1 1 1 1 1 1 1 1 1 1 1 1 1 1 1 nan
nan 2 2 2 2 3 3 4 4 4 4 4 3 2 1 2 2 2 2 2 -0 -1 -1 1 1 -0 -0 1 1 1 2 2 3 3 3 2 1 0 -0 -0 0 1 2 2 2 2 2 2 1 1 1 1 1 1 1 1 1 2 1 1 0 0 1 1 1 1 1 1 nan
nan 2 2 2 3 3 3 4 4 4 4 4 2 1 2 3 3 3 2 1 -0 0 1 1 0 0 0 0 0 1 1 2 2 3 3 2 1 0 -0 -0 0 1 2 2 2 2 2 2 1 1 1 1 1 1 1 2 2 1 1 -0 -0 0 0 0 1 1 1 1 nan
nan 3 3 3 3 3 3 4 5 5 4 3 2 1 2 3 3 2 2 2 2 1 0 -1 -0 -0 0 0 0 0 1 1 2 2 3 2 2 1 -0 -0 0 1 2 2 2 2 2 1 1 1 1 1 1 1 1 2 1 1 -0 -1 -0 0 0 0 1 1 1 1 nan
nan 3 3 4 3 3 4 4 5 5 4 3 2 2 3 3 3 2 3 3 2 0 -1 -1 -1 -1 0 0 -0 -0 0 1 1 2 2 2 2 1 0 -0 0 1 2 2 2 1 1 1 1 1 1 1 1 2 2 2 1 0 -1 -1 0 0 0 0 0 1 1 1 nan
nan 3 3 3 3 4 4 4 5 5 4 3 3 4 4 3 3 3 3 2 1 1 -0 -1 -1 -0 0 -0 -1 -0 -0 0 1 1 1 2 2 1 1 0 0 1 1 1 1 1 1 1 1 1 1 2 2 2 2 2 1 -0 -0 -0 1 1 0 -0 0 1 1 1 nan
nan 4 3 3 3 4 4 4 4 5 5 4 4 4 4 3 2 2 2 2 2 1 -1 -1 -0 0 -0 -1 -1 -1 -0 0 1 1 1 1 1 1 1 0 -0 0 1 1 1 1 1 1 1 1 1 2 2 2 2 1 1 0 0 1 1 0 -0 -1 -0 1 1 1 nan
nan 3 3 3 3 4 4 4 4 4 5 4 4 5 4 3 2 2 2 2 2 0 -1 -0 0 -0 -1 -1 -1 -0 -0 0 1 1 1 0 1 1 1 1 0 0 0 1 1 1 1 1 1 2 2 2 2 2 2 1 1 1 1 1 1 -0 -1 -1 -0 0 1 1 nan
nan 2 3 3 3 3 3 3 4 4 4 4 5 5 4 3 2 2 2 2 1 0 0 0 -0 -1 -1 -1 -1 -0 -0 0 0 0 1 0 1 1 1 1 0 0 0 1 1 1 1 1 2 2 2 2 2 2 1 1 1 1 1 1 -0 -1 -1 -1 0 0 1 1 nan
nan 1 2 3 3 3 3 3 4 4 4 4 4 5 4 4 3 3 2 1 0 1 1 0 -0 -1 -1 -1 -1 -1 -1 -0 0 0 1 1 1 2 2 1 1 0 0 0 1 1 1 1 2 2 2 2 2 2 2 1 1 1 1 -0 -1 -2 -1 -0 0 1 1 1 nan
nan 0 1 2 2 2 2 2 3 3 3 3 4 4 4 4 4 3 2 1 0 1 1 1 -0 -0 -1 -1 -1 -1 -1 -0 0 1 1 1 1 2 2 1 0 0 0 0 1 1 1 2 2 2 2 2 3 2 2 2 1 1 0 -1 -1 -2 -1 -0 1 1 1 0 nan
nan 1 1 1 1 1 1 2 2 3 3 3 3 3 4 4 3 3 2 1 1 1 1 1 0 -0 -0 -0 -1 -1 -0 0 0 1 1 1 1 2 2 1 0 0 0 1 0 1 1 2 2 2 2 3 3 3 2 1 1 0 -0 -1 -1 -1 -1 0 1 1 1 0 nan
nan 1 1 0 -0 0 1 1 2 2 2 2 2 2 3 3 3 3 2 2 1 1 1 1 1 1 0 0 0 0 0 0 0 0 0 0 1 1 1 1 1 1 1 0 -0 1 2 2 2 2 3 4 4 2 1 1 1 0 -0 -1 -1 -1 -0 0 0 1 1 0 nan
nan 1 1 0 -0 -0 0 1 1 2 2 2 2 2 2 2 2 2 2 3 2 2 1 1 2 1 1 1 1 1 1 0 0 -0 -0 -1 -0 0 1 2 2 1 -0 -1 -0 1 2 2 1 3 5 5 3 1 1 0 0 -0 -0 -0 -1 -1 -0 -0 0 1 1 0 nan
nan 2 1 0 -0 -0 -0 0 1 1 2 2 2 2 2 2 2 2 2 3 3 2 2 2 2 2 1 1 1 0 0 -0 -0 0 0 -0 -0 0 1 2 2 1 -1 -1 0 2 2 1 2 5 6 5 2 1 0 0 -0 -0 -0 -0 -1 -1 -1 -0 0 1 1 0 nan
nan 2 1 1 0 -0 -0 -0 0 1 1 2 2 1 1 2 2 2 2 3 3 3 3 3 3 2 2 2 1 1 0 0 0 0 1 1 1 1 1 1 1 0 -0 0 1 1 1 2 5 6 5 3 1 0 -0 -0 -0 -0 -0 -0 -0 -1 -1 -0 1 1 1 0 nan
nan 1 1 1 0 0 -0 -0 -0 0 0 1 1 1 1 1 1 1 2 2 3 3 3 3 3 3 3 3 3 2 2 2 1 1 1 1 1 1 1 1 1 0 0 1 1 1 2 5 6 6 3 2 1 0 -0 -0 -0 -0 -0 -0 -0 -1 -0 0 1 1 1 -0 nan
nan 1 1 1 1 0 0 0 -0 -0 -0 -0 -0 0 0 -0 -0 0 1 1 1 1 1 1 2 2 3 3 3 3 3 3 2 2 2 2 1 1 1 1 1 1 1 1 0 2 4 6 5 3 2 1 1 -0 -1 -0 -0 -0 -0 -0 -0 -0 0 1 1 1 0 -0 nan
nan 1 1 1 1 1 0 0 0 -0 -0 -0 -0 -0 -0 -1 -1 -1 -1 -0 -0 -1 -1 -0 1 1 2 3 3 3 3 3 2 2 2 2 1 1 2 2 2 1 1 -0 1 3 5 5 3 1 1 1 0 -0 -1 -1 -0 -0 -0 -0 -0 0 0 1 1 1 0 -0 nan
nan 1 1 1 1 1 1 1 1 0 0 0 0 0 0 -0 -0 -0 -0 -0 -0 -1 -1 -1 -1 -0 1 2 2 2 2 2 2 2 2 2 2 2 3 3 2 1 0 0 2 4 4 2 1 1 1 1 0 -1 -1 -1 -1 -0 -0 0 0 0 1 1 1 0 -0 -0 nan
nan 1 1 1 1 1 1 1 1 1 1 1 1 1 1 1 1 1 0 0 1 1 1 0 -0 -1 -0 0 1 1 1 1 1 1 2 2 3 3 3 3 2 1 0 1 2 3 2 1 -0 1 1 1 0 -1 -1 -1 -1 -0 0 0 1 1 1 1 1 -0 -1 -1 nan
nan 0 1 1 1 1 1 1 1 1 1 1 1 2 2 2 2 2 1 1 2 2 2 1 1 0 0 -0 -0 0 0 0 1 1 2 2 3 3 3 2 1 1 0 1 2 2 1 -0 -0 1 2 1 0 -1 -1 -1 -1 -0 0 1 1 1 1 1 0 -1 -1 -0 nan
nan -0 0 1 1 1 1 1 1 1 1 1 1 2 2 2 3 2 2 2 2 2 2 2 2 1 1 0 -0 -0 -0 -0 0 1 2 2 3 3 3 2 1 1 1 1 2 1 0 -1 -0 1 2 1 0 -1 -1 -1 -1 0 1 1 1 1 1 1 -0 -1 -1 -0 nan
nan 0 0 0 0 0 1 1 1 1 1 1 1 2 2 3 3 2 2 2 3 3 3 3 2 2 1 1 -0 -1 -0 0 0 1 1 2 3 3 3 2 1 1 1 1 2 1 -0 -1 0 2 2 2 0 -1 -1 -1 -0 0 1 1 1 1 1 -0 -1 -1 -1 -0 nan
nan 0 0 0 0 0 0 1 1 1 1 1 1 1 2 2 2 2 2 2 3 3 3 3 3 3 2 0 -1 -1 0 1 2 1 1 2 2 2 2 2 1 1 1 1 1 0 -1 -0 1 2 2 1 0 -1 -1 -1 -0 1 1 1 1 1 0 -1 -1 -1 -0 -0 nan
nan 0 0 1 1 1 1 1 1 1 1 1 1 1 1 1 1 2 2 2 2 2 2 3 4 3 2 0 0 1 1 2 2 2 2 1 1 2 2 2 1 0 0 1 1 0 -1 0 1 2 2 1 -0 -1 -1 -1 0 1 1 1 1 0 -0 -1 -1 -0 -0 -0 nan
nan -0 0 0 1 1 2 2 2 2 2 1 1 1 1 1 1 1 2 1 1 1 2 3 3 2 1 1 2 2 1 1 2 2 2 1 1 2 2 2 1 -0 0 1 1 -0 -0 0 2 3 2 1 -1 -1 -1 -1 -0 1 1 1 0 -0 -1 -1 -0 -0 -0 -0 nan
nan -1 -0 -0 0 1 1 2 2 2 2 2 2 2 1 1 2 2 2 2 1 1 1 1 1 1 1 2 2 1 1 2 2 2 1 1 2 2 2 2 1 0 0 1 1 0 0 1 2 3 2 1 -1 -2 -2 -1 -0 0 1 0 -0 -0 -0 -0 -0 -1 -1 -1 nan
nan -1 -1 -1 -0 0 1 1 1 2 2 2 2 2 2 2 2 3 3 3 2 2 1 1 1 1 2 2 2 1 1 1 2 2 2 3 3 3 2 1 0 0 1 2 2 1 1 2 3 3 2 0 -1 -2 -2 -1 -0 0 0 0 -0 -0 -0 -0 -0 -1 -1 -0 nan
nan -0 -0 -0 -0 -0 0 1 1 1 1 1 1 1 2 2 2 2 2 3 3 2 1 1 1 1 2 2 2 2 2 1 1 2 3 3 3 3 2 1 -0 -0 1 2 2 1 1 2 3 2 1 0 -1 -2 -2 -1 -0 0 0 0 -0 0 0 -0 -0 -0 -0 0 nan
nan 0 -0 -0 -0 -0 0 0 1 1 1 1 1 1 1 2 2 2 2 2 2 2 2 2 1 1 2 2 2 2 2 3 2 2 2 2 2 2 1 0 -1 -0 1 2 2 1 2 3 2 2 1 0 -1 -2 -2 -1 -0 0 0 0 0 0 0 0 -0 -0 -0 0 nan
nan 0 0 0 0 0 0 0 0 0 0 0 1 2 2 1 1 1 2 2 2 2 2 2 2 2 2 2 2 2 3 3 3 2 2 2 2 1 0 -0 -0 0 1 1 1 2 2 2 2 1 1 -0 -1 -1 -1 -0 -0 -0 -0 0 0 0 0 0 0 -0 -0 0 nan
nan -0 0 0 0 1 1 1 0 0 -0 0 1 2 2 2 1 2 2 2 1 1 1 2 3 3 2 2 2 2 2 2 3 3 3 2 2 1 0 0 0 0 0 0 0 1 2 2 2 1 0 -0 -1 -1 -0 0 -0 -0 -0 0 0 0 0 0 0 -0 -0 -0 nan
nan -0 -0 -0 0 1 1 0 0 -0 -0 0 1 1 2 2 2 2 2 2 1 1 1 2 2 2 2 2 2 2 2 3 3 3 2 2 2 2 1 1 0 -0 -0 -0 -0 0 1 2 1 1 0 -0 -1 -1 -0 0 -0 -0 -0 -0 -0 0 1 1 0 -0 -1 -1 nan
nan -1 -1 -1 -0 0 1 0 -0 -0 0 1 1 1 1 1 2 2 3 3 2 1 1 2 2 2 2 3 3 2 2 2 2 2 2 2 2 2 1 1 0 -0 -0 -0 -0 0 1 2 1 1 0 -0 -1 -1 -0 -0 -0 -0 -0 -0 -0 0 1 0 -0 -1 -1 -1 nan
nan -2 -1 -1 -1 -0 0 0 0 0 0 1 0 0 1 1 1 2 2 2 2 2 2 2 2 2 3 3 3 2 2 2 2 2 2 2 1 1 1 1 -0 -0 -0 -0 -0 -0 1 2 1 0 0 -0 -1 -1 -1 -0 -0 -0 0 0 0 0 0 0 -0 -1 -2 -2 nan
nan -2 -2 -2 -2 -1 -1 -0 1 1 1 0 0 0 0 0 1 1 2 2 2 2 2 2 2 3 3 3 3 2 2 2 3 2 2 1 1 1 1 1 0 -0 -0 -0 -0 0 1 2 1 0 0 -0 -1 -1 -1 -0 0 0 0 0 0 0 0 0 -0 -1 -1 -2 nan
nan nan nan nan nan nan nan nan nan nan nan nan nan nan nan nan nan nan nan nan nan nan nan nan nan nan nan nan nan nan nan nan nan nan nan nan nan nan nan nan nan nan nan nan nan nan nan nan nan nan nan nan nan nan nan nan nan nan nan nan nan nan nan nan nan nan nan nan nan
Wind_Speed
39 41 42 44 46 47 49 50 51 52 53 53 53 54 54 54 54 54 54 54 53 53 52 52 51 50 50 49 48 47 46 45 45 46 47 49 50 49 47 45 43 41 40 39 39 38 37 36 35 34 34 33 33 32 32 31 31 30 29 29 29 29 29 28 28 28 28 28 28
37 39 41 43 44 46 47 49 50 51 53 53 54 55 55 55 55 55 54 54 54 53 52 51 51 50 50 49 48 47 46 45 44 44 46 47 48 48 47 45 43 41 40 39 38 38 37 36 35 35 34 34 33 32 32 31 30 29 29 29 29 29 29 29 29 28 28 28 28
35 37 39 41 43 44 45 47 48 49 51 52 53 54 55 55 56 55 55 54 53 52 52 51 51 50 49 49 48 47 46 45 44 43 44 45 47 48 47 45 43 41 39 39 38 38 37 37 36 36 35 34 33 32 32 31 29 29 28 29 30 30 30 29 29 29 29 29 28
33 35 37 39 40 42 43 45 46 47 49 50 52 53 54 55 55 55 55 54 53 53 52 51 51 50 49 48 48 47 46 45 44 43 43 44 45 47 47 45 43 41 40 39 38 38 38 37 37 36 36 35 33 32 31 30 29 28 28 30 31 31 30 30 29 29 29 29 28
32 33 35 36 38 40 41 43 44 46 47 48 50 51 53 53 54 54 54 54 54 53 52 51 50 49 48 48 47 46 46 45 44 43 43 43 44 45 46 45 44 42 40 39 38 38 38 38 38 37 36 35 33 32 31 29 28 28 29 30 31 31 31 30 29 29 29 29 28
31 32 33 35 36 38 39 41 42 44 45 46 48 50 51 52 53 53 54 54 53 52 51 51 50 49 48 48 47 46 45 44 44 43 43 43 43 44 45 45 43 42 40 39 38 38 39 39 39 38 37 35 33 32 30 28 28 28 30 31 32 32 30 30 29 29 29 29 28
31 32 33 33 35 36 38 39 41 42 43 45 46 47 48 50 51 52 52 52 51 51 51 50 50 49 49 48 47 46 45 44 43 42 42 42 42 43 44 44 43 41 40 39 39 39 39 39 39 39 37 35 34 31 29 28 28 29 30 32 32 31 30 29 29 29 29 29 29
33 33 33 33 34 35 36 37 39 40 42 43 45 46 47 48 49 50 50 50 50 50 50 50 50 49 49 48 47 46 45 44 42 42 41 41 42 43 43 43 42 41 40 39 39 40 40 40 40 39 38 36 34 31 29 28 28 29 31 32 32 31 30 30 30 30 29 29 29
35 35 34 34 34 34 35 36 37 39 40 42 43 44 45 46 48 48 49 49 49 49 49 49 49 49 48 48 47 46 45 43 42 41 41 41 41 42 43 43 42 41 40 40 40 41 41 41 41 39 38 36 33 31 29 28 28 29 31 31 31 30 30 30 30 30 29 29 29
36 36 35 34 34 34 34 35 36 38 39 40 41 43 44 45 46 47 47 47 47 47 48 48 48 48 48 48 47 46 45 43 42 41 40 40 41 41 42 43 42 41 40 41 41 41 42 42 41 40 38 36 33 30 28 28 28 29 30 30 30 30 30 31 31 30 29 29 30
37 36 36 35 35 34 34 35 36 37 38 39 40 41 42 43 45 45 45 45 45 46 47 47 47 47 47 47 47 46 44 43 41 40 40 39 40 41 42 43 42 42 41 41 42 42 42 42 41 40 38 35 32 30 29 28 29 29 29 29 29 30 31 32 31 30 29 30 30
38 37 36 36 35 35 34 35 35 36 37 37 38 39 40 42 42 43 43 44 45 46 45 45 45 46 46 46 46 45 44 42 41 40 39 39 39 40 42 43 43 42 42 42 42 43 43 42 41 40 37 35 32 30 29 29 29 29 29 28 29 31 32 32 31 30 29 30 30
38 37 37 36 35 35 34 34 34 35 35 36 36 37 38 39 40 41 42 43 44 44 44 43 44 44 44 44 44 44 43 42 40 39 38 38 39 40 41 42 43 43 43 43 43 43 43 42 41 39 37 34 32 30 30 29 29 29 28 28 29 31 32 32 30 29 29 30 30
38 37 37 36 35 34 33 33 33 33 33 33 34 34 35 37 37 39 40 42 42 42 42 42 42 43 43 43 43 42 42 41 40 39 38 38 38 39 41 43 43 44 43 43 43 43 43 42 40 38 36 34 32 31 30 29 29 28 28 28 30 31 32 31 30 29 29 30 30
38 37 36 35 34 33 32 31 31 30 30 30 30 31 32 33 34 35 37 39 39 39 40 41 41 41 41 41 42 42 41 41 40 39 38 38 38 39 41 42 44 44 44 44 44 44 43 41 40 38 36 34 33 31 30 30 29 28 28 29 30 31 31 30 29 29 29 29 29
38 37 36 34 33 32 30 29 28 28 27 27 27 27 28 30 31 32 34 35 36 36 37 38 39 39 39 40 41 41 42 42 42 41 40 39 39 40 41 42 43 44 44 44 44 43 42 41 39 38 36 35 33 32 31 30 29 28 28 29 30 31 31 30 29 29 29 29 29
38 36 35 33 31 30 28 27 26 25 25 24 24 25 25 26 27 28 29 30 32 33 34 35 36 37 38 39 40 40 41 42 42 42 41 40 40 40 40 41 43 44 44 44 44 43 42 40 39 38 37 35 33 32 31 30 29 29 28 29 30 31 31 30 29 29 28 28 29
36 34 33 31 29 28 26 25 24 23 22 22 22 22 22 23 23 24 25 26 27 28 30 31 32 34 36 37 38 39 39 40 40 40 40 40 40 40 40 41 42 43 44 44 44 43 41 40 39 38 37 35 34 32 31 30 29 29 29 29 30 31 31 30 29 28 28 28 28
33 31 30 29 27 26 25 23 22 21 20 20 20 20 20 19 19 20 21 21 22 23 24 26 28 30 32 33 35 36 37 37 38 38 39 39 40 40 40 41 42 43 44 44 43 42 41 40 40 39 37 36 34 33 31 30 30 29 29 29 30 31 31 30 29 28 27 27 28
29 28 27 26 25 24 23 22 21 20 19 18 17 17 17 17 17 17 18 18 18 19 21 23 25 26 27 28 30 31 33 34 35 36 37 38 39 39 40 40 42 43 43 43 43 42 42 41 40 39 37 36 34 33 32 31 30 30 30 30 31 31 31 30 28 27 27 27 28
25 25 24 24 23 23 22 20 19 18 17 16 15 15 15 15 15 16 16 16 17 18 19 21 23 24 25 26 27 28 29 30 32 33 34 36 37 38 38 39 41 42 43 44 43 43 42 41 40 39 38 36 35 33 32 31 31 30 30 30 31 31 31 29 28 27 27 27 28
23 23 23 22 21 21 20 19 18 17 16 16 15 15 15 15 15 16 16 16 17 19 20 22 23 24 24 25 26 26 26 28 29 31 32 34 35 36 37 39 41 43 44 44 44 44 43 42 40 39 38 36 35 34 33 32 31 30 30 30 31 31 30 29 28 28 28 28 28
22 21 21 20 20 19 18 17 17 17 17 17 17 17 18 18 18 19 19 20 21 22 23 23 24 24 24 24 25 25 26 27 29 30 31 33 34 35 37 39 41 43 44 45 45 44 43 42 41 39 38 37 35 34 33 32 32 31 30 30 31 31 30 29 29 28 28 28 29
22 22 21 20 19 18 17 17 17 17 18 18 18 19 20 21 21 22 22 23 24 25 26 26 27 27 27 27 26 26 27 28 29 30 31 32 33 35 37 38 41 43 45 46 46 45 44 42 41 39 38 37 36 35 34 33 32 31 31 30 30 30 30 29 29 29 29 29 29
25 24 22 21 19 18 18 18 18 18 18 19 19 20 21 22 22 23 24 25 26 26 27 28 29 30 30 30 29 29 28 29 30 31 32 33 34 35 37 39 41 43 45 46 47 46 45 43 41 39 38 37 36 35 34 33 33 32 31 30 30 30 30 30 30 30 30 29 29
29 27 25 23 22 21 20 20 20 20 20 20 21 21 22 23 24 25 26 27 27 27 28 29 30 31 31 31 31 31 31 31 31 32 33 34 35 37 38 39 41 43 45 46 47 46 45 42 40 39 38 37 37 36 35 34 33 32 31 30 30 30 30 31 31 31 30 29 29
31 30 28 27 26 25 24 23 23 23 23 23 24 24 24 25 26 26 27 27 27 27 27 28 29 30 31 32 33 33 33 33 33 33 34 35 37 38 39 40 41 42 44 45 46 46 44 42 40 38 38 37 37 36 35 34 34 33 31 31 30 30 31 32 32 31 30 29 29
32 31 30 29 28 28 27 27 27 27 27 27 27 27 27 28 28 28 28 28 28 28 28 28 29 30 31 32 33 33 33 33 34 35 36 37 38 39 40 40 41 42 43 44 45 45 44 42 40 39 38 38 37 36 35 35 34 33 32 31 31 31 32 32 32 31 30 29 29
32 31 30 30 29 29 29 29 29 29 29 29 29 29 29 30 29 29 29 29 28 28 28 28 28 29 31 32 32 32 33 33 34 35 36 38 39 40 40 41 41 41 42 43 43 43 43 41 40 38 38 38 37 36 36 35 35 34 33 32 32 32 33 33 32 31 30 29 29
33 32 31 31 30 30 29 29 29 28 28 28 29 29 30 30 30 30 30 30 30 29 29 29 29 29 30 31 31 31 32 33 34 35 37 38 39 40 41 41 41 41 41 42 42 42 42 41 39 38 38 38 37 37 36 36 36 35 34 33 33 33 33 33 32 31 30 29 29
34 34 33 33 32 31 30 29 28 28 28 28 28 28 29 30 30 30 31 31 31 31 30 30 30 30 30 29 30 31 32 33 33 35 37 38 39 40 41 41 41 41 41 41 41 41 41 40 39 38 38 37 37 37 37 37 36 36 35 34 34 34 33 32 32 31 30 29 28
34 34 34 34 34 33 32 30 29 29 28 28 28 28 28 29 29 30 30 31 31 31 31 31 31 30 30 30 30 31 32 33 34 35 36 37 38 39 40 40 41 41 41 40 40 40 40 40 39 38 37 37 37 37 37 37 37 37 36 35 34 34 33 32 31 30 29 28 28
34 34 34 34 34 34 33 32 31 30 30 29 29 29 29 29 29 30 30 30 31 31 31 31 31 31 30 30 31 32 33 34 35 36 36 37 37 38 39 39 40 40 40 40 39 39 39 39 38 38 37 36 36 37 37 38 38 37 36 35 34 34 33 32 31 30 29 28 27
33 33 33 33 34 34 33 32 32 31 31 30 30 30 30 29 29 30 30 30 30 31 31 31 31 31 31 31 31 33 34 35 35 36 37 37 37 38 38 39 39 39 39 38 38 38 38 38 38 37 37 36 36 36 37 38 38 37 36 35 34 33 32 32 31 29 28 27 26
33 32 32 32 32 33 33 33 32 32 31 31 31 30 30 30 29 29 30 30 30 31 31 31 31 31 31 32 32 33 34 35 36 36 37 37 38 38 38 39 39 38 38 37 37 37 37 38 38 37 36 36 35 35 36 37 37 37 36 35 34 33 32 31 30 29 27 26 26
33 32 31 31 31 32 32 32 32 32 32 32 31 31 30 30 29 30 30 30 30 31 31 31 31 32 32 33 33 33 34 34 35 36 36 37 38 38 38 38 38 37 37 36 36 36 37 37 37 37 37 36 35 35 36 37 37 37 36 35 34 33 32 31 29 28 27 27 27
34 32 31 31 31 31 31 32 32 33 33 32 32 31 30 30 29 29 29 30 30 31 31 31 32 32 33 33 33 34 33 33 34 35 36 36 37 38 38 38 37 37 36 35 35 35 36 37 37 37 37 36 36 36 37 37 37 37 36 35 34 33 32 31 30 28 28 28 28
35 33 32 31 30 30 30 31 32 32 33 33 32 32 31 30 30 29 29 29 30 30 31 31 32 33 33 33 33 33 33 33 33 34 35 36 36 37 37 37 36 36 35 35 34 34 35 36 37 38 37 37 36 37 38 38 38 37 36 36 35 34 33 31 30 29 29 29 29
35 35 34 33 32 31 31 31 31 32 32 32 32 32 31 31 30 30 30 30 30 30 31 31 32 32 32 33 33 33 34 33 34 34 34 35 35 35 35 35 35 35 34 34 33 34 35 36 37 38 38 37 37 37 38 39 38 38 37 36 35 34 33 32 30 30 29 30 30
36 35 35 34 33 33 32 31 32 32 32 32 32 31 31 30 30 30 30 30 30 30 31 31 31 32 32 32 33 33 34 34 34 34 34 34 33 33 33 34 34 33 33 32 32 33 34 36 37 38 38 37 37 38 39 39 39 38 37 37 36 35 33 32 31 30 30 30 31
36 35 35 35 35 34 34 33 32 32 32 31 31 31 30 30 30 30 30 30 30 30 30 31 31 31 31 32 32 33 34 34 34 34 33 33 32 32 32 32 32 32 31 31 31 32 33 35 37 38 38 38 38 39 39 40 39 39 38 37 36 35 33 32 30 30 30 30 31
Wind_Direction
277 275 274 273 272 271 269 269 268 267 265 264 263 263 263 263 262 262 262 262 262 262 262 261 261 260 260 259 259 259 258 256 254 251 247 245 244 244 245 247 248 248 247 246 244 244 243 243 242 242 243 244 246 248 250 252 253 255 256 258 259 259 259 259 259 260 261 261 263
282 281 280 278 277 275 274 273 272 270 268 267 266 265 264 264 263 263 263 263 263 263 263 262 262 261 261 261 260 260 259 258 256 253 249 246 244 244 245 246 247 248 247 245 244 243 242 241 241 241 242 244 245 247 249 252 253 255 256 258 259 259 258 258 259 260 260 261 262
287 285 283 281 280 278 277 276 275 274 272 271 269 268 266 266 265 265 264 264 264 263 263 263 263 263 263 262 262 261 260 259 257 254 251 248 245 244 244 245 246 247 247 245 243 242 241 241 241 241 242 244 245 247 249 251 253 255 257 259 259 258 258 258 259 259 260 260 261
291 288 286 284 283 282 281 280 279 278 276 274 272 270 269 268 267 267 266 265 264 264 264 264 264 264 264 264 263 263 262 260 258 256 253 250 246 244 244 244 245 246 246 244 242 240 240 240 240 241 242 243 245 246 248 250 253 255 258 258 258 257 257 257 259 259 260 261 261
294 292 290 288 287 286 285 283 281 279 278 276 274 273 272 271 269 268 267 266 265 265 265 265 265 265 265 265 265 264 263 262 259 257 254 251 248 245 244 244 245 245 245 243 241 239 239 239 240 240 241 243 244 245 247 249 252 256 258 258 257 256 256 257 258 260 261 262 262
298 296 294 292 290 288 286 285 283 281 279 277 275 274 273 272 270 269 268 267 266 266 266 265 265 265 265 265 265 265 264 263 260 258 255 252 249 247 245 244 245 245 244 242 240 238 238 238 239 240 241 242 243 244 245 248 252 256 257 257 256 255 256 257 259 260 261 262 263
302 299 297 294 292 290 288 286 284 282 280 278 276 275 274 274 273 271 270 269 268 267 266 265 265 265 265 265 265 265 264 263 262 259 256 254 251 248 246 245 245 245 243 241 239 238 238 238 238 239 240 241 241 242 244 248 252 256 257 256 256 256 257 259 260 261 262 263 263
305 303 300 298 295 292 290 288 285 283 280 278 277 277 276 275 274 274 272 271 268 267 266 266 266 266 266 265 265 266 265 265 263 261 258 255 252 249 247 246 246 244 242 240 238 237 237 238 238 239 240 240 240 241 244 249 253 256 257 256 256 257 259 261 261 261 262 263 263
306 305 303 301 298 294 292 289 286 284 281 280 279 278 277 276 275 274 273 271 269 268 267 267 267 267 266 266 266 266 266 265 264 262 259 256 253 251 248 247 246 244 242 239 238 237 238 238 238 239 239 239 239 241 245 250 254 256 256 256 257 259 260 261 261 261 262 263 263
306 305 303 301 298 296 293 290 288 285 283 281 280 279 277 276 275 274 273 272 271 269 268 268 268 267 267 267 267 267 266 266 264 263 261 258 255 251 249 247 246 244 242 239 238 238 238 238 238 239 239 238 239 241 246 250 254 255 255 256 257 260 261 260 260 261 262 263 264
305 303 301 299 298 296 294 291 289 287 285 283 281 279 278 276 275 275 274 273 272 270 270 269 269 268 268 268 268 267 267 266 265 263 261 258 255 252 249 247 246 244 242 241 240 239 239 239 239 239 238 238 238 241 246 250 253 254 254 255 257 259 259 259 260 261 263 264 265
304 302 300 298 297 295 294 291 290 288 287 285 284 282 279 278 277 276 275 274 273 272 271 270 269 269 269 268 268 267 267 266 264 263 260 258 255 252 249 247 246 245 243 242 241 241 240 240 240 239 238 237 238 241 246 250 251 252 253 255 257 258 258 258 259 261 263 265 266
302 300 298 297 296 295 294 293 292 291 290 288 287 285 283 281 278 277 275 275 275 274 272 271 270 270 269 269 268 267 267 265 264 261 259 256 254 251 249 247 245 244 243 242 242 242 242 241 241 239 238 237 238 242 246 249 251 252 253 254 256 257 257 257 258 260 263 265 266
301 299 297 296 295 295 294 294 294 293 293 292 291 289 287 284 281 278 276 276 276 276 274 273 272 271 270 269 269 268 267 265 263 260 257 254 252 250 248 246 245 243 242 242 242 242 242 242 241 240 238 237 239 243 247 249 251 252 253 254 256 256 257 257 258 260 262 264 266
301 299 298 297 296 296 296 296 296 296 295 295 294 293 291 288 284 281 279 279 279 278 277 275 274 273 272 271 270 269 267 265 263 260 256 253 250 248 246 245 244 243 242 242 242 242 242 241 241 239 238 237 239 243 247 249 251 252 253 254 256 256 256 256 257 259 261 264 266
301 300 299 298 297 297 297 297 298 297 297 296 296 296 294 291 288 285 283 282 282 281 280 278 277 276 274 272 271 269 268 266 264 261 257 253 249 247 245 245 244 243 242 242 242 242 241 241 240 238 237 237 240 244 247 249 251 252 253 254 256 256 255 255 256 258 261 264 267
302 301 300 299 299 299 299 299 298 298 298 298 298 297 295 294 291 289 287 286 285 284 282 282 280 278 276 274 272 270 269 268 266 263 260 256 252 248 246 245 243 243 242 242 241 241 241 240 239 237 236 237 240 243 247 249 251 252 253 254 255 256 255 254 255 257 261 264 267
303 303 302 301 301 300 300 299 299 299 299 299 298 297 296 295 294 292 291 289 287 285 284 284 282 280 278 277 275 273 271 270 269 266 263 259 256 252 249 246 244 243 242 242 242 241 240 239 238 236 236 237 240 243 246 248 250 252 253 254 255 255 254 254 254 257 261 265 268
305 305 304 304 303 302 301 300 300 300 300 300 299 298 298 298 297 295 293 291 289 287 285 283 282 280 279 279 277 275 274 272 271 269 266 262 258 255 251 248 245 244 243 242 242 241 240 238 237 236 236 238 240 242 245 247 249 251 252 253 254 254 254 253 254 257 261 265 268
308 308 307 306 304 303 302 301 301 301 301 301 301 301 301 302 302 300 297 294 292 289 286 283 280 278 277 277 276 274 273 272 271 269 267 263 260 256 252 249 247 245 244 243 241 240 238 237 236 236 238 239 240 241 243 246 248 250 251 252 254 254 253 253 254 257 260 264 267
310 309 308 306 305 303 303 302 302 302 302 302 302 302 303 304 304 303 301 299 295 291 287 282 279 276 273 271 269 269 269 268 268 267 265 262 259 256 253 250 248 246 244 242 241 239 237 235 235 237 238 239 239 240 242 245 247 249 250 252 253 254 254 253 254 256 260 263 266
310 309 307 305 304 303 302 301 300 299 299 298 298 298 298 297 297 299 298 295 290 287 284 281 278 274 271 268 265 265 265 265 264 263 262 260 258 255 252 249 247 245 243 242 240 237 235 234 236 237 238 237 237 238 241 244 247 248 249 251 253 253 253 253 254 256 258 261 264
309 307 305 304 303 301 300 298 296 294 293 292 292 291 290 289 289 289 287 285 282 281 280 279 277 274 272 269 266 264 262 261 261 260 259 257 256 254 251 249 246 244 243 241 239 236 234 234 236 237 237 236 235 237 240 243 246 247 248 250 252 252 252 252 253 255 257 260 263
309 307 305 303 300 298 295 293 291 289 289 289 288 287 286 285 284 283 282 281 279 278 277 276 275 274 273 271 268 265 261 259 258 257 256 255 254 253 251 248 245 243 241 240 238 236 234 235 236 237 236 234 234 236 239 242 245 246 247 249 250 251 251 251 252 254 257 259 262
309 307 305 302 300 296 293 290 289 288 288 288 287 286 286 285 284 283 281 280 279 278 277 276 275 274 272 271 268 266 262 259 257 255 254 254 253 252 250 247 245 243 241 239 237 235 235 236 237 237 235 233 233 235 238 241 244 245 246 247 248 249 250 250 252 254 256 259 262
308 306 304 302 299 296 294 292 290 290 290 290 290 289 288 288 286 284 283 281 280 279 278 276 274 272 271 270 268 266 263 261 258 256 254 252 251 250 248 246 244 242 240 238 237 235 235 236 237 236 234 232 231 233 237 240 243 244 244 245 246 247 248 249 251 254 256 258 261
309 306 303 300 298 295 294 293 292 292 292 292 292 292 292 290 288 286 285 283 282 280 278 276 273 272 270 269 267 265 263 262 260 257 255 253 251 249 248 246 245 243 241 239 237 235 235 236 236 235 233 231 230 232 236 240 242 243 243 243 244 245 247 249 251 253 256 258 261
312 308 303 300 296 294 293 293 292 292 292 293 293 292 292 291 289 287 286 284 283 281 278 276 274 272 271 269 267 266 265 263 262 259 257 255 253 251 249 248 246 244 242 240 237 236 235 235 236 234 232 230 230 232 235 239 241 242 241 241 242 243 245 248 250 253 255 258 261
315 311 307 302 298 296 294 293 292 292 292 292 292 291 291 290 289 288 287 285 284 282 280 278 276 274 272 271 270 270 268 266 264 261 259 257 255 253 251 249 248 246 244 241 238 236 235 234 235 234 232 230 229 231 235 238 240 241 240 239 240 242 244 247 250 252 254 257 260
317 314 311 307 304 300 297 295 294 294 293 293 292 291 291 290 290 289 287 286 284 283 282 280 278 276 275 275 274 273 270 268 265 262 260 258 256 255 253 251 249 247 245 242 238 236 234 233 233 232 231 230 229 231 234 238 240 240 239 239 239 242 245 248 250 252 253 256 259
319 317 315 312 309 306 303 300 298 297 295 294 294 293 292 292 291 290 289 287 286 285 284 282 280 279 278 277 275 273 271 269 266 263 260 259 257 256 255 253 251 249 246 243 239 235 233 232 231 230 229 229 230 232 235 238 239 240 239 239 240 242 245 248 250 252 253 255 258
320 318 317 315 313 310 307 304 302 300 298 297 296 295 295 295 295 294 292 290 288 286 285 283 283 282 280 278 275 273 271 268 266 263 261 260 258 257 256 255 253 251 248 244 239 235 232 230 229 228 227 227 230 233 236 239 240 240 240 240 241 243 246 248 250 252 253 255 258
320 319 318 316 315 313 310 307 304 302 301 299 298 297 297 297 297 296 295 293 290 288 286 285 284 283 281 278 275 273 271 269 266 264 263 261 260 258 257 256 255 253 250 245 240 235 231 229 227 225 224 224 228 233 237 240 242 242 241 241 242 244 246 249 250 252 253 255 259
318 317 317 316 315 313 311 308 306 304 302 300 299 298 298 298 298 298 297 295 293 290 288 286 284 283 280 278 275 273 271 269 267 265 263 261 260 259 258 257 256 254 251 246 241 235 230 227 225 223 221 221 224 230 235 240 242 243 243 243 244 245 247 249 250 251 253 255 259
314 314 314 313 313 312 311 309 306 304 302 300 299 298 297 297 298 297 297 295 293 290 288 286 284 282 280 277 274 272 270 268 266 265 263 262 261 260 259 258 257 256 253 248 242 235 230 226 223 221 219 219 221 225 231 237 241 243 244 245 245 246 247 249 250 251 253 256 259
309 308 309 309 309 309 309 307 306 304 302 300 299 298 297 297 297 296 294 293 291 289 288 286 284 282 279 277 274 272 270 269 267 266 264 263 262 261 260 260 259 258 255 250 243 236 230 225 221 219 218 218 220 223 227 233 238 241 244 245 246 247 248 249 250 251 253 255 259
304 303 302 303 304 304 305 304 304 303 301 301 300 299 298 297 296 294 293 291 290 289 288 287 285 283 281 279 277 275 273 272 270 268 266 265 263 262 262 261 261 259 256 252 245 237 230 224 220 217 216 217 219 222 226 230 235 239 242 244 245 247 248 249 250 251 253 255 258
301 298 297 297 297 298 299 300 300 300 300 301 300 300 299 297 296 294 292 290 289 288 288 287 285 284 282 281 279 277 276 274 271 269 267 266 264 264 263 263 262 261 258 253 247 238 230 223 219 216 215 216 219 222 226 229 233 236 239 242 244 246 247 248 249 251 253 255 258
299 296 293 292 293 294 295 296 297 298 299 299 299 299 298 298 296 295 292 290 289 288 287 286 285 283 282 280 279 277 276 274 271 269 267 266 266 265 264 264 263 262 259 255 248 240 230 223 218 215 214 215 219 222 226 229 233 235 238 240 242 244 246 247 248 250 253 256 258
299 296 293 291 291 292 292 293 294 296 297 297 297 298 297 297 295 293 291 289 288 287 286 285 285 283 281 279 278 277 275 273 271 269 267 266 266 266 265 264 263 262 260 256 250 241 231 222 217 214 214 215 219 223 227 230 233 235 238 240 241 243 244 246 247 249 252 256 259
301 297 294 292 291 291 292 293 293 294 295 296 296 296 296 295 293 291 290 288 287 287 286 285 284 283 281 279 277 276 275 273 271 269 268 267 267 266 264 263 262 261 259 256 250 241 232 223 217 214 213 215 219 223 227 230 233 235 237 239 241 242 243 245 246 248 251 255 259
Height
1456 1456 1455 1454 1454 1453 1452 1451 1451 1450 1450 1450 1449 1448 1447 1447 1446 1446 1446 1446 1446 1446 1446 1447 1447 1447 1448 1449 1449 1450 1451 1453 1455 1456 1457 1459 1460 1461 1462 1464 1465 1466 1467 1467 1468 1468 1469 1469 1470 1470 1470 1471 1471 1472 1472 1472 1473 1473 1473 1473 1474 1474 1474 1474 1474 1474 1474 1474 1473
1454 1453 1452 1452 1451 1450 1449 1448 1447 1447 1446 1446 1446 1445 1445 1444 1444 1444 1444 1444 1443 1444 1444 1444 1445 1445 1446 1446 1447 1448 1449 1450 1451 1453 1455 1456 1457 1458 1460 1461 1462 1463 1464 1465 1465 1465 1466 1466 1466 1467 1467 1468 1468 1469 1469 1469 1470 1470 1471 1471 1471 1472 1472 1472 1471 1472 1471 1471 1471
1451 1451 1450 1449 1448 1447 1446 1445 1444 1444 1443 1443 1443 1442 1442 1441 1441 1441 1441 1441 1441 1441 1442 1442 1442 1442 1443 1444 1444 1445 1446 1447 1449 1450 1451 1453 1454 1455 1456 1458 1459 1460 1461 1461 1462 1462 1462 1463 1463 1464 1464 1465 1465 1466 1466 1467 1467 1468 1468 1469 1469 1469 1469 1469 1469 1469 1469 1469 1469
1449 1448 1447 1446 1445 1444 1443 1442 1441 1441 1441 1440 1440 1439 1439 1438 1438 1438 1438 1439 1439 1439 1439 1439 1439 1440 1440 1441 1441 1442 1443 1444 1446 1447 1448 1450 1451 1452 1453 1454 1456 1457 1457 1458 1459 1459 1460 1460 1461 1461 1461 1462 1462 1463 1464 1464 1465 1466 1466 1466 1466 1466 1466 1466 1466 1467 1466 1466 1466
1446 1446 1444 1443 1442 1441 1440 1440 1439 1438 1438 1437 1437 1436 1435 1435 1435 1435 1435 1436 1436 1436 1436 1436 1437 1437 1437 1438 1439 1439 1440 1441 1443 1444 1445 1446 1448 1449 1450 1451 1452 1453 1454 1455 1456 1456 1457 1457 1457 1458 1458 1459 1460 1460 1461 1462 1462 1463 1463 1464 1464 1464 1464 1464 1464 1464 1464 1464 1464
1444 1443 1442 1441 1440 1439 1438 1437 1436 1436 1435 1435 1433 1432 1431 1431 1431 1431 1431 1432 1432 1432 1433 1433 1434 1434 1435 1435 1436 1436 1437 1438 1439 1441 1442 1443 1445 1446 1447 1448 1450 1451 1451 1452 1453 1453 1454 1454 1454 1455 1455 1456 1457 1457 1458 1459 1460 1460 1461 1461 1461 1461 1461 1461 1462 1462 1462 1461 1461
1442 1441 1440 1438 1437 1436 1435 1434 1433 1433 1432 1431 1430 1429 1428 1428 1428 1428 1428 1429 1430 1430 1430 1430 1431 1431 1431 1432 1433 1433 1434 1435 1436 1438 1439 1441 1442 1443 1444 1446 1447 1448 1449 1449 1450 1450 1451 1451 1451 1451 1452 1453 1454 1455 1456 1456 1457 1457 1458 1458 1458 1459 1459 1459 1459 1460 1459 1459 1459
1440 1438 1437 1436 1435 1433 1432 1431 1431 1430 1429 1428 1427 1426 1426 1426 1426 1426 1426 1427 1427 1427 1427 1427 1427 1428 1429 1429 1430 1431 1431 1432 1434 1435 1436 1438 1439 1440 1441 1443 1444 1445 1446 1446 1447 1447 1447 1448 1448 1448 1449 1450 1451 1452 1453 1454 1454 1455 1455 1456 1456 1456 1457 1457 1457 1457 1457 1457 1457
1437 1436 1435 1433 1432 1431 1430 1429 1428 1427 1426 1425 1424 1424 1424 1423 1423 1423 1423 1424 1424 1424 1424 1424 1425 1425 1426 1426 1427 1428 1429 1430 1431 1432 1434 1435 1436 1437 1439 1440 1441 1442 1443 1444 1444 1444 1445 1445 1445 1446 1446 1447 1448 1449 1450 1451 1451 1452 1453 1453 1454 1454 1455 1455 1455 1455 1455 1455 1455
1435 1434 1432 1431 1429 1428 1427 1426 1425 1424 1423 1422 1422 1422 1421 1421 1421 1421 1421 1421 1421 1422 1421 1421 1422 1422 1423 1423 1424 1425 1426 1427 1428 1430 1431 1432 1433 1434 1436 1437 1438 1439 1440 1441 1441 1441 1441 1442 1442 1442 1443 1445 1446 1446 1447 1448 1449 1449 1450 1451 1451 1452 1452 1452 1452 1452 1452 1452 1452
1433 1431 1430 1428 1427 1426 1425 1423 1422 1421 1421 1420 1420 1419 1419 1419 1418 1418 1418 1418 1419 1419 1418 1418 1419 1419 1420 1420 1421 1422 1423 1424 1426 1427 1428 1429 1430 1431 1432 1433 1435 1436 1437 1437 1438 1438 1438 1439 1439 1440 1441 1442 1443 1444 1444 1445 1446 1447 1447 1448 1449 1449 1449 1450 1450 1450 1450 1450 1450
1431 1429 1427 1426 1424 1423 1422 1421 1419 1418 1418 1417 1417 1417 1417 1416 1416 1416 1415 1415 1415 1415 1415 1416 1416 1416 1416 1417 1418 1419 1420 1421 1422 1423 1424 1425 1426 1428 1429 1430 1431 1433 1434 1434 1435 1435 1435 1436 1436 1437 1439 1440 1440 1441 1441 1442 1443 1444 1445 1446 1446 1446 1446 1447 1447 1447 1447 1447 1447
1428 1426 1425 1423 1422 1421 1419 1418 1417 1416 1415 1414 1414 1414 1414 1413 1413 1413 1413 1412 1412 1412 1412 1412 1412 1413 1413 1414 1414 1415 1416 1417 1418 1419 1421 1421 1423 1424 1425 1426 1428 1429 1430 1431 1431 1432 1432 1433 1434 1435 1436 1437 1438 1438 1439 1440 1440 1441 1442 1443 1443 1444 1444 1444 1445 1445 1445 1445 1445
1425 1423 1422 1421 1419 1418 1416 1415 1414 1413 1412 1412 1411 1411 1411 1411 1411 1410 1410 1409 1409 1409 1409 1409 1409 1410 1410 1410 1411 1412 1412 1413 1414 1415 1416 1417 1418 1420 1421 1422 1424 1426 1427 1427 1428 1429 1429 1430 1431 1433 1434 1435 1435 1436 1436 1437 1438 1439 1440 1440 1441 1441 1441 1442 1442 1442 1442 1442 1442
1422 1421 1419 1418 1417 1415 1414 1413 1412 1411 1410 1409 1409 1408 1408 1408 1407 1407 1407 1406 1406 1406 1406 1406 1406 1406 1407 1408 1408 1409 1409 1410 1410 1411 1412 1413 1414 1415 1417 1418 1420 1422 1423 1424 1425 1425 1426 1428 1429 1431 1431 1432 1432 1433 1434 1435 1435 1436 1437 1437 1438 1438 1439 1439 1440 1440 1440 1439 1439
1420 1419 1417 1416 1414 1413 1412 1411 1410 1409 1408 1407 1406 1406 1406 1405 1405 1404 1404 1404 1403 1403 1403 1403 1403 1404 1404 1405 1405 1406 1406 1407 1407 1408 1408 1409 1410 1411 1412 1414 1416 1418 1419 1421 1421 1422 1423 1425 1426 1428 1429 1429 1430 1430 1431 1432 1433 1434 1434 1435 1435 1436 1436 1437 1437 1437 1437 1437 1437
1417 1416 1415 1414 1412 1411 1410 1409 1408 1407 1406 1405 1404 1404 1403 1402 1402 1401 1401 1401 1401 1401 1401 1401 1401 1401 1401 1402 1402 1403 1403 1404 1405 1405 1406 1406 1407 1408 1409 1411 1413 1414 1416 1417 1418 1419 1421 1422 1424 1425 1425 1426 1426 1427 1428 1429 1430 1431 1431 1432 1433 1433 1434 1434 1435 1435 1435 1435 1434
1415 1414 1413 1412 1410 1409 1408 1407 1406 1405 1404 1403 1402 1401 1401 1400 1399 1399 1398 1398 1398 1398 1398 1398 1398 1398 1399 1399 1400 1400 1401 1401 1402 1403 1403 1404 1405 1406 1407 1408 1410 1411 1413 1414 1415 1416 1418 1419 1420 1421 1422 1423 1424 1425 1426 1427 1427 1428 1429 1429 1430 1431 1431 1432 1432 1432 1432 1432 1432
1413 1412 1411 1410 1409 1407 1406 1405 1404 1403 1402 1401 1400 1399 1398 1398 1397 1396 1396 1396 1395 1395 1395 1395 1395 1395 1396 1396 1396 1397 1397 1398 1399 1399 1401 1401 1403 1404 1404 1405 1407 1408 1410 1411 1412 1414 1415 1416 1417 1418 1419 1420 1421 1422 1423 1424 1425 1425 1426 1426 1427 1428 1428 1429 1430 1430 1430 1430 1429
1412 1411 1409 1408 1407 1406 1405 1404 1403 1401 1401 1400 1398 1397 1396 1396 1395 1394 1393 1393 1393 1392 1392 1392 1392 1392 1392 1392 1393 1393 1394 1394 1395 1396 1397 1398 1399 1400 1401 1402 1404 1405 1406 1408 1409 1411 1412 1413 1414 1414 1416 1417 1418 1419 1420 1421 1422 1422 1423 1424 1424 1425 1426 1426 1427 1427 1427 1427 1427
1410 1409 1407 1406 1405 1404 1403 1402 1401 1400 1399 1398 1397 1396 1395 1394 1393 1392 1391 1391 1391 1390 1389 1388 1388 1388 1388 1388 1389 1389 1390 1391 1391 1392 1393 1394 1395 1396 1398 1399 1401 1402 1403 1404 1406 1407 1408 1409 1410 1411 1412 1414 1415 1416 1417 1418 1419 1420 1420 1421 1421 1422 1423 1424 1424 1424 1424 1424 1424
1409 1407 1406 1405 1404 1403 1402 1401 1400 1399 1398 1397 1396 1395 1394 1393 1392 1391 1390 1390 1389 1388 1386 1386 1386 1385 1385 1385 1386 1386 1386 1387 1388 1389 1390 1391 1391 1392 1394 1396 1396 1398 1399 1400 1401 1403 1404 1405 1406 1408 1409 1411 1412 1413 1414 1415 1416 1417 1417 1418 1419 1420 1421 1421 1421 1421 1421 1421 1421
1407 1406 1405 1403 1402 1401 1400 1399 1398 1397 1396 1395 1394 1393 1392 1391 1391 1390 1389 1388 1387 1386 1386 1385 1385 1384 1384 1384 1384 1384 1384 1385 1385 1385 1386 1387 1387 1389 1390 1391 1392 1393 1394 1396 1397 1399 1400 1402 1403 1405 1406 1407 1409 1410 1411 1412 1413 1414 1415 1415 1416 1417 1417 1418 1418 1418 1418 1418 1418
1407 1405 1404 1402 1401 1400 1398 1397 1396 1395 1394 1393 1392 1391 1391 1390 1389 1388 1387 1386 1386 1385 1385 1385 1384 1384 1383 1383 1383 1382 1382 1382 1382 1382 1383 1383 1384 1385 1386 1386 1387 1388 1389 1391 1392 1394 1396 1398 1400 1401 1402 1404 1405 1407 1408 1409 1410 1411 1411 1412 1413 1414 1415 1415 1415 1415 1415 1415 1415
1406 1405 1403 1401 1400 1398 1397 1396 1395 1393 1392 1391 1391 1390 1389 1388 1387 1386 1385 1384 1383 1383 1383 1383 1383 1382 1382 1382 1381 1381 1381 1380 1380 1379 1380 1380 1381 1381 1382 1382 1382 1383 1384 1386 1388 1390 1392 1394 1396 1397 1399 1400 1402 1403 1405 1406 1407 1408 1408 1409 1410 1411 1411 1412 1412 1412 1412 1412 1412
1406 1404 1403 1401 1399 1398 1396 1395 1393 1392 1391 1390 1389 1388 1387 1386 1385 1384 1383 1382 1381 1381 1381 1381 1380 1380 1380 1379 1379 1379 1378 1378 1378 1377 1377 1377 1377 1377 1378 1378 1378 1379 1380 1382 1384 1386 1389 1391 1393 1394 1395 1397 1398 1400 1401 1403 1404 1405 1406 1406 1407 1408 1408 1408 1409 1409 1409 1409 1409
1404 1402 1401 1400 1398 1396 1395 1394 1392 1391 1390 1389 1388 1386 1386 1385 1383 1382 1381 1380 1379 1379 1378 1378 1377 1377 1377 1376 1376 1376 1376 1376 1376 1376 1375 1375 1374 1374 1374 1374 1375 1376 1376 1378 1381 1383 1386 1388 1390 1391 1392 1393 1395 1397 1398 1400 1401 1402 1402 1403 1404 1404 1405 1405 1406 1406 1406 1406 1406
1401 1400 1399 1397 1396 1395 1393 1392 1391 1390 1388 1387 1386 1385 1384 1382 1381 1380 1379 1377 1377 1376 1375 1375 1375 1375 1374 1373 1373 1372 1373 1373 1373 1373 1373 1372 1372 1371 1371 1371 1372 1372 1374 1376 1378 1381 1383 1385 1387 1388 1389 1390 1392 1394 1396 1397 1398 1399 1399 1400 1401 1401 1401 1402 1402 1403 1404 1404 1404
1399 1397 1396 1395 1393 1392 1391 1390 1388 1387 1386 1385 1384 1382 1381 1380 1378 1377 1376 1375 1374 1373 1372 1372 1372 1372 1371 1370 1370 1370 1370 1370 1370 1370 1370 1370 1370 1369 1369 1369 1369 1370 1371 1373 1376 1378 1381 1382 1384 1385 1386 1387 1389 1391 1393 1394 1395 1396 1396 1397 1397 1398 1398 1399 1400 1400 1401 1401 1401
1397 1395 1394 1392 1391 1389 1388 1387 1386 1384 1383 1382 1381 1379 1378 1376 1375 1374 1373 1372 1371 1371 1370 1370 1369 1369 1368 1367 1367 1367 1367 1366 1366 1367 1367 1366 1366 1366 1366 1366 1367 1367 1369 1371 1373 1376 1378 1380 1381 1382 1383 1385 1386 1388 1390 1391 1392 1393 1393 1394 1394 1395 1395 1396 1397 1398 1398 1398 1399
1395 1393 1391 1390 1388 1387 1386 1384 1382 1381 1380 1379 1377 1376 1375 1374 1372 1371 1371 1370 1369 1368 1368 1367 1366 1366 1365 1365 1364 1364 1363 1363 1363 1363 1362 1363 1363 1363 1363 1364 1364 1365 1366 1368 1370 1372 1375 1377 1378 1380 1381 1383 1384 1386 1387 1389 1390 1390 1390 1391 1391 1392 1393 1394 1394 1395 1395 1396 1396
1393 1391 1390 1388 1386 1385 1383 1381 1380 1378 1377 1376 1374 1373 1372 1371 1370 1369 1368 1367 1366 1366 1365 1364 1364 1363 1363 1362 1361 1361 1360 1360 1359 1359 1359 1359 1360 1360 1361 1361 1361 1362 1363 1365 1367 1370 1372 1374 1376 1377 1379 1381 1382 1383 1384 1386 1387 1387 1388 1388 1389 1390 1390 1391 1391 1392 1392 1393 1393
1391 1390 1388 1386 1384 1382 1381 1379 1377 1376 1374 1373 1371 1370 1369 1368 1367 1366 1365 1365 1364 1363 1362 1361 1361 1360 1360 1360 1359 1358 1358 1357 1356 1356 1356 1357 1357 1358 1358 1358 1358 1359 1360 1362 1365 1367 1369 1371 1373 1375 1377 1379 1380 1381 1381 1383 1384 1384 1385 1386 1386 1387 1388 1388 1389 1389 1390 1390 1391
1390 1388 1386 1384 1382 1381 1379 1377 1375 1374 1372 1371 1369 1368 1366 1366 1365 1364 1363 1362 1361 1360 1360 1359 1358 1357 1357 1357 1356 1356 1356 1355 1354 1354 1354 1355 1355 1356 1356 1356 1356 1356 1358 1360 1362 1364 1366 1368 1370 1372 1375 1377 1379 1379 1380 1380 1381 1381 1382 1383 1384 1385 1385 1386 1386 1386 1387 1388 1388
1387 1386 1384 1382 1380 1378 1376 1375 1373 1371 1370 1368 1366 1365 1364 1363 1362 1361 1360 1360 1359 1357 1356 1356 1355 1355 1354 1354 1354 1353 1353 1353 1352 1352 1352 1352 1353 1353 1353 1353 1354 1355 1356 1358 1360 1362 1364 1366 1368 1370 1372 1375 1377 1378 1378 1377 1378 1378 1379 1380 1381 1382 1382 1383 1383 1384 1385 1385 1386
1385 1383 1381 1379 1378 1376 1374 1372 1371 1369 1367 1366 1364 1363 1362 1361 1360 1359 1358 1357 1356 1355 1354 1353 1352 1352 1351 1351 1351 1351 1351 1351 1350 1350 1350 1350 1351 1351 1351 1351 1352 1353 1355 1356 1358 1360 1362 1364 1366 1368 1370 1373 1375 1376 1376 1375 1376 1376 1377 1378 1378 1379 1380 1381 1381 1381 1382 1382 1383
1382 1380 1378 1376 1375 1373 1372 1370 1368 1366 1365 1363 1362 1361 1359 1358 1357 1356 1355 1354 1353 1352 1351 1351 1350 1349 1349 1348 1348 1348 1348 1348 1348 1348 1348 1348 1348 1348 1349 1350 1351 1352 1353 1355 1356 1358 1360 1362 1364 1366 1368 1370 1372 1373 1373 1373 1373 1374 1374 1375 1376 1376 1377 1378 1378 1379 1379 1380 1380
1379 1377 1375 1373 1372 1370 1369 1367 1366 1364 1362 1361 1360 1358 1357 1356 1355 1353 1352 1351 1351 1350 1349 1348 1347 1346 1346 1346 1346 1346 1346 1346 1346 1346 1346 1346 1346 1346 1347 1348 1348 1350 1351 1353 1355 1356 1358 1360 1361 1363 1366 1367 1369 1370 1371 1371 1371 1371 1372 1373 1373 1374 1375 1376 1376 1376 1376 1376 1377
1375 1373 1372 1370 1369 1367 1366 1364 1362 1361 1360 1358 1357 1356 1355 1353 1352 1351 1350 1349 1348 1347 1346 1346 1345 1344 1344 1344 1343 1343 1342 1342 1343 1343 1343 1343 1343 1344 1345 1346 1346 1347 1348 1350 1352 1354 1356 1357 1359 1361 1363 1365 1366 1367 1368 1368 1369 1369 1370 1371 1371 1372 1372 1373 1374 1374 1374 1374 1374
1372 1370 1369 1367 1366 1364 1362 1361 1359 1358 1357 1356 1354 1353 1352 1351 1350 1348 1347 1346 1345 1344 1343 1343 1342 1342 1341 1341 1341 1340 1340 1340 1340 1340 1340 1341 1341 1342 1342 1343 1343 1344 1346 1347 1349 1351 1353 1355 1357 1359 1361 1363 1364 1365 1365 1366 1366 1367 1367 1368 1369 1370 1370 1371 1371 1371 1371 1371 1372
1369 1367 1366 1364 1362 1361 1360 1358 1356 1355 1354 1353 1351 1350 1349 1348 1347 1346 1344 1343 1342 1341 1341 1340 1340 1339 1339 1338 1338 1337 1337 1336 1336 1337 1337 1338 1339 1339 1340 1340 1341 1341 1342 1344 1346 1348 1351 1353 1355 1357 1359 1361 1362 1362 1363 1363 1364 1365 1365 1366 1366 1367 1368 1368 1369 1369 1369 1369 1369